sat.trackr.live / text

‹ back to catalog

USA 115 (MILSTAR-1 2)

NORAD 23712 · 1995-060A

PAYLOAD ACTIVE UNKNOWN

§ Identity

Operator
Country
US
Launch date
1995-11-06
Launch site
AFETR
Launch vehicle
Mass (kg)
RCS (m²)

Purposes: comms

External: N2YO · Heavens-Above · Gunter

§ Orbital elements

Epoch: 2026-09-19T22:03:58.859136Z

Period
1,436.05 min
Inclination
14.1068°
Eccentricity
0.0006264
Mean motion
1.00275330 rev/d
Perigee alt
35,759.2 km
Apogee alt
35,812.0 km
Semi-major
42,163.7 km
B*
0.0000e+0
RAAN
3.0284°
Arg perigee
158.0254°
Mean anomaly
78.7956°
Rev number
3,383

§ Raw data

USA 115 (MILSTAR-1 2)1 23712U 95060A   26262.91943124 -.00000201  00000+0  00000+0 0  99982 23712  14.1068   3.0284 0006264 158.0254  78.7956  1.00275330 33837

JSON: /api/v1/satellites/23712 · /tle

For live sub-satellite position, see the globe view (requires WebGL).

§ Visibility from observer

Set your observer location to see the next 7 days of passes ≥ 10°. The values pass through the URL so the page stays shareable.

No JS? Fill the form by hand. The geolocation button needs JavaScript.